{"data":{"norad_id":66450,"epoch":"2026-05-25T03:49:50.979648Z","epoch_age_seconds":61413,"freshness":"FRESH","line1":"1 66450U 25259AE  26145.15961782  .00014545  00000+0  53668-3 0  9990","line2":"2 66450  43.0000 202.7174 0001550 294.2328  65.8362 15.27601764 31186","mean_motion":15.27601764,"eccentricity":0.000155,"inclination_deg":43,"raan_deg":202.7174,"arg_perigee_deg":294.2328,"mean_anomaly_deg":65.8362,"bstar":0.00053668,"rev_number":3118,"period_min":94.265405679382,"perigee_km":481.92045382405,"apogee_km":484.0474013116,"semimajor_km":6861.1209275678,"source":"CELESTRAK","updated_at":"2026-05-25T13:38:21.213249Z"}}